Location: Agadir Mansour Mhndou
(31.2424°N, 8.7730°W)
Time: 19:12:19
(UTC+00:00)

CZ-4 R/B - Pass Details

Date: 16 October 2021
Orbit: 580 x 588 km, 97.7° (Epoch: 08 December)

Event Time Altitude Azimuth Distance (km) Brightness Sun altitude
Rises 19:06:24 0° 168° (SSE) 2,800 7.8 -14.5°
Reaches altitude 10° 19:08:33 10° 169° (S) 1,903 7.0 -15.0°
Maximum altitude 19:12:41 85° 258° (WSW) 593 4.4 -15.8°
Drops below altitude 10° 19:16:50 10° 347° (NNW) 1,911 7.2 -16.7°
Sets 19:19:00 0° 348° (NNW) 2,813 8.1 -17.2°
